Regional Weather Roundup
Issued by NWS

Home | Current Version | Previous Version | Graphics & Text | Print | Product List | Glossary On
Versions: 1 2 3 4 5 6 7 8 9 10 11 12 13 14 15 16 17 18 19 20 21 22 23 24 25 26 27 28 29 30 31 32 33 34 35 36 37 38 39 40 41 42 43 44 45 46 47 48 49 50
000
ASUS43 KMKX 191800
RWRWI

WISCONSIN REGIONAL WEATHER ROUNDUP
NATIONAL WEATHER SERVICE MILWAUKEE/SULLIVAN WI
100 PM CDT SAT APR 19 2014

NOTE: "FAIR" INDICATES FEW OR NO CLOUDS BELOW 12,000 FEET WITH NO
SIGNIFICANT WEATHER AND/OR OBSTRUCTIONS TO VISIBILITY.

WIZ001-002-006>008-014>016-023>028-191900-
NORTHWEST WISCONSIN

CITY           SKY/WX    TMP DP  RH WIND       PRES   REMARKS
SUPERIOR ARPT  DRIZZLE   35  32  87 NE9       30.07F WCI  28
ASHLAND        CLOUDY    48  26  42 S10G17    30.07F
6HR MIN TEMP:  35; 6HR MAX TEMP:  48; 6HR PCP:  0.01;

HAYWARD        CLOUDY    47  28  47 S15G25    30.07F
6HR MIN TEMP:  36; 6HR MAX TEMP:  47;

SIREN          CLOUDY    47  29  50 S24G31    30.01F
RICE LAKE      CLOUDY    53  30  41 SE24      30.13F
LADYSMITH      PTSUNNY   51  31  47 SE18G28   30.17F
EAU CLAIRE     NOT AVBL
MENOMONIE      PTCLDY    58  31  36 SE18G24   30.13F
NEW RICHMOND   CLOUDY    54  33  45 S22G29    30.07F
OSCEOLA        CLOUDY    53  35  49 SE17G25   30.07F
$$

WIZ003>005-009-010-017-018-191900-
NORTH CENTRAL WISCONSIN

CITY           SKY/WX    TMP DP  RH WIND       PRES   REMARKS
WOODRUFF       PTSUNNY   49  25  38 SE16G25   30.20F
RHINELANDER    MOSUNNY   45  24  43 SE16G22   30.23F
6HR MIN TEMP:  28; 6HR MAX TEMP:  45;

EAGLE RIVER    PTSUNNY   46  20  34 S15G24    30.22F
LAND O LAKES   PTSUNNY   47  20  33 S15G24    30.21F
PHILLIPS       PTSUNNY   47  27  46 SE16G24   30.17F
TOMAHAWK       MOSUNNY   46  26  44 SE5G16    30.23F
MEDFORD        MOSUNNY   48  31  52 SE16G22   30.22F
MERRILL        SUNNY     49  29  44 CALM      30.24F
$$

WIZ029-030-035-036-043>047-191900-
CENTRAL WISCONSIN

CITY           SKY/WX    TMP DP  RH WIND       PRES   REMARKS
WAUSAU         SUNNY     54  27  35 SE14G22   30.22F
6HR MIN TEMP:  31; 6HR MAX TEMP:  54;

MOSINEE        SUNNY     50  30  46 SE18G24   30.25F
MARSHFIELD     MOSUNNY   54  31  41 SE18G26   30.21F
6HR MIN TEMP:  33; 6HR MAX TEMP:  54;

STEVENS POINT  MOSUNNY   49  27  41 SE14G23   30.28F
WAUPACA        MOSUNNY   52  30  43 SE13      30.31F
WAUTOMA        NOT AVBL
WISC RAPIDS    MOSUNNY   57  28  33 SE17G24   30.25F
6HR MIN TEMP:  32; 6HR MAX TEMP:  57;

CAMP DOUGLAS   NOT AVBL
$$

WIZ011>013-019>022-031-037>040-048>050-191900-
NORTHEAST WISCONSIN

CITY           SKY/WX    TMP DP  RH WIND       PRES   REMARKS
ANTIGO         SUNNY     46  30  53 SE18      30.27F
STURGEON BAY   MOSUNNY   43  28  56 S13       30.36F
6HR MIN TEMP:  32; 6HR MAX TEMP:  43;

GREEN BAY      MOSUNNY   48  33  56 SE13      30.33F
6HR MIN TEMP:  32; 6HR MAX TEMP:  48;

MANITOWOC      NOT AVBL
APPLETON       PTSUNNY   48  30  49 S13G21    30.32F
CLINTONVILLE   MOSUNNY   48  28  46 SE8G16    30.32F
OSHKOSH        PTSUNNY   51  31  46 SE12      30.31F
6HR MIN TEMP:  33; 6HR MAX TEMP:  51;

$$

WIZ032>034-041-042-053>061-191900-
SOUTHWEST WISCONSIN

CITY           SKY/WX    TMP DP  RH WIND       PRES   REMARKS
LA CROSSE      SUNNY     61  32  33 S17       30.16F
6HR MIN TEMP:  38; 6HR MAX TEMP:  61;

SPARTA         SUNNY     60  29  31 S17G23    30.22F
VIROQUA        FAIR      58  33  39 SE17G24   30.21F
BOSCOBEL       MOSUNNY   62  30  29 SE8G20    30.23F
6HR MIN TEMP:  37; 6HR MAX TEMP:  63;

PRAIRIE DU CHI MOSUNNY   60  28  29 SE8G21    30.22F
PLATTEVILLE    FAIR      60  32  35 SE16G22   30.26F
$$

WIZ056-057-062-063-064-067-068-191900-
SOUTH CENTRAL WISCONSIN

CITY           SKY/WX    TMP DP  RH WIND       PRES   REMARKS
BARABOO/DELLS  MOSUNNY   55  29  36 S14       30.26F
LONE ROCK      NOT AVBL
WATERTOWN      PTSUNNY   55  34  45 SE12      30.31F
MADISON        PTSUNNY   59  34  39 SE18      30.29F
6HR MIN TEMP:  34; 6HR MAX TEMP:  59;

MIDDLETON      FAIR      59  31  35 S13       30.29F
MONROE         MOSUNNY   60  32  34 SE15G21   30.28F
6HR MIN TEMP:  33; 6HR MAX TEMP:  60;

JANESVILLE     SUNNY     61  30  31 SE17      30.30F
$$

WIZ051-052-058>065-066-070>072-191900-
SOUTHEAST WISCONSIN

CITY           SKY/WX    TMP DP  RH WIND       PRES   REMARKS
MILWAUKEE      PTSUNNY   44  33  65 SE14      30.36F
6HR MIN TEMP:  35; 6HR MAX TEMP:  45;

WAUKESHA       PTSUNNY   48  34  57 SE9G16    30.34F
MILWAUKEE/TIMM SUNNY     45  30  57 SE12      30.36F
RACINE         MOSUNNY   44  33  65 SE14      30.37F
6HR MIN TEMP:  36; 6HR MAX TEMP:  45;

BURLINGTON     MOSUNNY   51  35  54 S10       30.34F
KENOSHA        MOSUNNY   47  36  65 SE12      30.35F
6HR MIN TEMP:  34; 6HR MAX TEMP:  48;

FOND DU LAC    PTSUNNY   52  32  46 SE15      30.31F
6HR MIN TEMP:  34; 6HR MAX TEMP:  52;

SHEBOYGAN      PTSUNNY   44  32  62 SE14G22   30.35F
6HR MIN TEMP:  33; 6HR MAX TEMP:  44;

WEST BEND      PTSUNNY   43  32  65 SE12G17   30.35S
JUNEAU         PTSUNNY   52  28  39 SE13      30.32F
$$

LSZ147-162-191900-
LAKE SUPERIOR

STATION/POSITION TIME  TEMP    WIND        PRES    WAVE
                       AIR SEA DIR/SP/G            HT/PER
                 (UTC) (F)     (DEG/KT/KT) (MB)    (FT/S)
DEVILS ISLAND    1700   33      80/ 12/ 13 1021.1F
PORT WING        1712   33      30/ 17/ 40 1019.0F
SAXON HARBOR     1740          170/  8/ 19 1018.3F
$$

LMZ867-665-643>646-191900-
LAKE MICHIGAN

STATION/POSITION TIME  TEMP    WIND        PRES    WAVE
                       AIR SEA DIR/SP/G            HT/PER
                 (UTC) (F)     (DEG/KT/KT) (MB)    (FT/S)
NORTHPORT PIER   1700   34     120/  7/  8 1029.5F
SISTER BAY       1723   48     140/ 12/ 17   N/A
KEWAUNEE LAKESHO 1700   35     170/  9/ 12 1029.6F
SHEBOYGAN LAKESH 1700   36     150/  8/  8 1029.7F
PORT WASHINGTON  1700   38     150/  5/  7 1029.5
MILWAUKEE LAKESH 1700   36     120/  8/  9   N/A
KENOSHA   LAKESH 1700   39     110/  6/  7   N/A
$$

TC  - TEMPERATURE IN CELSIUS
VSB - VISIBILITY IN STATUTE MILES
WCI - WIND CHILL INDEX
HX  - HEAT INDEX




USA.gov is the U.S. government's official web portal to all federal, state and local government web resources and services.